Location: Star Dogged Moon Observatory
(29.7756°N, 82.0783°W)
Time: 13:43:21
(UTC-04:00)

Amateur Radio Satellites - All Passes

Search period start: 23 April 2017 13:13
Search period end: 24 April 2017 13:13
Location: Star Dogged Moon Observatory, 29.7756°N, 82.0783°W

Satellite Date Start Highest point End Downlink Frequencies (MHz)
Time Altitude Azimuth
POLYITAN 1 23 Apr 13:18:14 13:21:49 27° 262° (W) 13:25:24 437.675
SPROUT 23 Apr 13:18:39 13:22:33 35° 99° (E) 13:26:25 437.525
VELOX 1 23 Apr 13:22:47 13:27:00 43° 100° (E) 13:31:11 145.980
QB50P2 23 Apr 13:25:05 13:28:15 20° 263° (W) 13:31:26 145.880/145.840
Gurwin Techsat 1B 23 Apr 13:31:23 13:34:26 16° 67° (ENE) 13:37:28 435.225
PCSat 23 Apr 13:39:44 13:45:11 79° 66° (ENE) 13:50:35 145.827
AO-85 23 Apr 13:50:30 13:54:58 82° 116° (ESE) 13:59:08 145.980
NANOSAT C BR1 23 Apr 13:52:43 13:54:13 12° 266° (W) 13:55:44 145.865
Oscar 19 23 Apr 13:58:06 14:03:05 54° 74° (ENE) 14:08:07 437.125/150
UKube-1 23 Apr 14:02:23 14:06:08 29° 98° (E) 14:09:51 .
BUGSAT 1 23 Apr 14:04:04 14:07:48 31° 262° (W) 14:11:30 437.445
50 SAT 23 Apr 14:04:28 14:07:58 86° 277° (W) 14:11:25 437.505
DX 1 23 Apr 14:27:01 14:31:23 87° 279° (W) 14:35:43 434.975-435.025
BEESAT 2 23 Apr 14:52:57 14:55:38 18° 109° (ESE) 14:58:20 435.950
SPROUT 23 Apr 14:55:56 14:58:06 14° 291° (WNW) 15:00:15 437.525
VELOX 1 23 Apr 15:01:08 15:03:00 13° 292° (WNW) 15:04:52 145.980
BEESAT 3 23 Apr 15:01:16 15:05:09 78° 117° (ESE) 15:09:07 437.485
Gurwin Techsat 1B 23 Apr 15:08:45 15:13:53 50° 260° (W) 15:19:03 435.225
AO-7 23 Apr 15:13:22 15:20:28 33° 64° (ENE) 15:27:32 .
ITAMSAT 1 23 Apr 15:16:40 15:20:48 24° 69° (ENE) 15:24:56 435.822/435.867
UKube-1 23 Apr 15:39:01 15:41:53 18° 290° (WNW) 15:44:44 .
Oscar 19 23 Apr 15:40:25 15:42:37 13° 266° (W) 15:44:50 437.125/150
ITUPSAT 1 23 Apr 15:42:23 15:46:26 27° 98° (E) 15:50:28 437.325
YUBILEINY 23 Apr 15:45:12 15:52:03 25° 74° (ENE) 15:58:53 435.215
RS-15 23 Apr 15:58:18 16:06:12 19° 37° (NE) 16:13:51 29.354- 29.394
BEESAT 2 23 Apr 16:29:51 16:33:09 25° 303° (WNW) 16:36:30 435.950
BEESAT 23 Apr 16:41:26 16:46:07 59° 285° (WNW) 16:50:47 436.000
SO-50 23 Apr 16:47:46 16:51:29 25° 56° (ENE) 16:55:12 436.795
ITAMSAT 1 23 Apr 16:55:32 17:00:03 30° 262° (W) 17:04:34 435.822/435.867
AO-7 23 Apr 17:05:04 17:12:53 45° 258° (WSW) 17:20:44 .
MOZHAYETS 4 23 Apr 17:07:23 17:11:57 64° 284° (WNW) 17:16:31
JUGNU 23 Apr 17:16:51 17:18:54 12° 160° (SSE) 17:20:57 437.505
ITUPSAT 1 23 Apr 17:20:21 17:24:04 23° 290° (WNW) 17:27:46 437.325
YUBILEINY 23 Apr 17:40:40 17:49:08 56° 269° (W) 17:57:38 435.215
KKS-1 23 Apr 17:46:15 17:50:34 51° 100° (E) 17:54:51 437.445
CUBESAT XI-V 23 Apr 17:48:31 17:53:08 52° 100° (E) 17:57:42 437.345
ISS 23 Apr 17:51:45 17:54:59 60° 45° (NE) 17:58:11 437.550
Tancredo 1 23 Apr 17:57:16 18:00:22 79° 228° (SW) 18:03:28 437.200
DOVE 4 23 Apr 18:06:57 18:11:42 35° 73° (ENE) 18:16:29 437.250
XW-2D 23 Apr 18:07:29 18:09:43 15° 71° (ENE) 18:11:58 145.860 - 145.880
RS-15 23 Apr 18:09:05 18:21:15 72° 61° (ENE) 18:32:43 29.354- 29.394
XW-2B 23 Apr 18:13:56 18:16:30 18° 72° (ENE) 18:19:06 145.730 - 145.750
LilacSat-2 23 Apr 18:20:10 18:23:12 23° 73° (ENE) 18:26:14 437.200
XW-2C 23 Apr 18:25:03 18:28:11 26° 74° (ENE) 18:31:19 145.795 - 145.815
SO-50 23 Apr 18:28:10 18:31:48 24° 249° (WSW) 18:35:26 436.795
STARS 23 Apr 18:28:10 18:32:30 66° 101° (E) 18:36:49 437.465
KAITUO 1B 23 Apr 18:31:45 18:34:45 24° 73° (ENE) 18:37:46 145.475/437.950
XW-2F 23 Apr 18:52:40 18:56:20 63° 77° (ENE) 19:00:02 145.980 - 146.000
JUGNU 23 Apr 19:02:42 19:07:21 24° 168° (SSE) 19:12:02 437.505
NUDT-PHONESAT 23 Apr 19:15:07 19:18:45 74° 258° (WSW) 19:22:25 437.300
CUTE-I 23 Apr 19:15:53 19:21:14 78° 257° (WSW) 19:26:36 437.470
CUTE 1.7 + AOD 2 23 Apr 19:24:02 19:26:40 16° 70° (ENE) 19:29:17 437.475
KKS-1 23 Apr 19:25:38 19:26:36 11° 293° (WNW) 19:27:35 437.445
CUBESAT XI-V 23 Apr 19:28:17 19:29:58 12° 293° (WNW) 19:31:39 437.345
XW-2D 23 Apr 19:40:39 19:43:40 23° 263° (W) 19:46:41 145.860 - 145.880
DOVE 4 23 Apr 19:45:20 19:49:19 22° 265° (W) 19:53:20 437.250
XW-2B 23 Apr 19:47:47 19:50:32 19° 264° (W) 19:53:17 145.730 - 145.750
SEEDS 23 Apr 19:50:16 19:53:25 21° 72° (ENE) 19:56:36 437.485
CUBEBUG 2 23 Apr 19:52:39 19:55:27 17° 71° (ENE) 19:58:13 437.445
LilacSat-2 23 Apr 19:55:13 19:57:24 15° 265° (W) 19:59:36 437.200
HO-68 23 Apr 19:57:17 20:04:17 61° 72° (ENE) 20:11:18 435.675
XW-2C 23 Apr 20:00:29 20:02:21 13° 265° (W) 20:04:12 145.795 - 145.815
NO-84 23 Apr 20:00:50 20:04:06 26° 125° (SE) 20:07:08 435.350 FM
KAITUO 1B 23 Apr 20:06:46 20:08:42 14° 265° (W) 20:10:39 145.475/437.950
STRAND 1 23 Apr 20:12:56 20:17:28 32° 98° (E) 20:21:59 437.568
SRMSAT 23 Apr 20:19:49 20:23:03 15° 162° (SSE) 20:26:17 437.500
XW-2A 23 Apr 20:20:32 20:23:53 73° 260° (W) 20:27:14 145.665 - 145.685
RS-15 23 Apr 20:23:36 20:32:26 25° 258° (WSW) 20:41:01 29.354- 29.394
M-CUBED/EXP-1 PRIME 23 Apr 20:43:35 20:47:42 64° 104° (ESE) 20:51:29 437.505
ZACube-1 23 Apr 20:49:42 20:53:08 24° 73° (ENE) 20:56:31 437.345
JUGNU 23 Apr 20:50:42 20:55:55 32° 178° (S) 21:01:08 437.505
AO-73 23 Apr 20:58:29 21:02:05 28° 73° (ENE) 21:05:39 145.935
CUTE 1.7 + AOD 2 23 Apr 20:58:34 21:02:12 29° 263° (W) 21:05:53 437.475
AAUSAT CUBESAT 2 23 Apr 21:07:35 21:11:42 86° 263° (W) 21:15:51 437.432
Oscar 11 23 Apr 21:17:49 21:21:50 40° 74° (ENE) 21:25:51 .
UWE-3 23 Apr 21:21:33 21:25:54 66° 260° (W) 21:30:08 435.000/436.395/437.385
O/OREOS (USA 219) 23 Apr 21:25:37 21:29:35 28° 66° (ENE) 21:33:30 437.305
SEEDS 23 Apr 21:25:44 21:28:57 21° 264° (W) 21:32:10 437.485
CUBEBUG 2 23 Apr 21:27:48 21:31:48 31° 262° (W) 21:35:42 437.445
NO-84 23 Apr 21:38:44 21:41:35 21° 315° (NW) 21:44:16 435.350 FM
HO-68 23 Apr 21:47:35 21:52:17 19° 265° (W) 21:57:02 435.675
STRAND 1 23 Apr 21:52:32 21:56:24 22° 291° (WNW) 22:00:15 437.568
SRMSAT 23 Apr 22:06:45 22:11:42 27° 171° (S) 22:16:38 437.500
OBJECT BX 23 Apr 22:20:29 22:23:55 42° 75° (ENE) 22:27:22 145.990 - 145.960
DELFI C3 23 Apr 22:22:39 22:26:34 67° 77° (ENE) 22:30:32 145.870
ZACube-1 23 Apr 22:26:14 22:29:18 19° 264° (W) 22:32:21 437.345
AO-85 23 Apr 22:29:08 22:30:43 12° 54° (NE) 22:32:17 145.980
AO-73 23 Apr 22:35:33 22:38:16 17° 264° (W) 22:40:58 145.935
JUGNU 23 Apr 22:39:30 22:44:29 28° 188° (S) 22:49:30 437.505
UNISAT 6 23 Apr 22:40:37 22:43:47 20° 96° (E) 22:46:59 437.425
Oscar 11 23 Apr 22:56:30 22:58:04 12° 266° (W) 22:59:38 .
O/OREOS (USA 219) 23 Apr 23:05:32 23:08:42 19° 260° (W) 23:11:51 437.305
PRISM 23 Apr 23:09:19 23:13:28 87° 102° (ESE) 23:17:35 437.425
FO-29 23 Apr 23:18:02 23:22:58 41° 100° (E) 23:28:13 435.910
LO-87 23 Apr 23:35:25 23:38:55 47° 76° (ENE) 23:42:26 145.935 - 145.965
ESTCUBE 1 23 Apr 23:46:08 23:50:11 34° 73° (ENE) 23:54:16 437.505/2401.250
SRMSAT 23 Apr 23:55:11 00:00:26 32° 181° (S) 00:05:40 437.500
TIGRISAT 23 Apr 23:56:10 00:00:15 46° 285° (WNW) 00:04:24 435.000
AIST 2D 24 Apr 00:05:57 00:08:41 21° 97° (E) 00:11:26 435.315
AO-85 24 Apr 00:07:20 00:11:13 45° 246° (WSW) 00:15:18 145.980
SPROUT 24 Apr 00:07:46 00:09:47 13° 69° (ENE) 00:11:48 437.525
VELOX 1 24 Apr 00:14:53 00:17:59 19° 70° (ENE) 00:21:06 145.980
UNISAT 6 24 Apr 00:16:57 00:20:23 24° 288° (WNW) 00:23:51 437.425
JUGNU 24 Apr 00:29:27 00:33:00 16° 197° (SSW) 00:36:32 437.505
EO-79 24 Apr 00:30:35 00:33:58 23° 97° (E) 00:37:20 145.935-145.965
50 SAT 24 Apr 00:33:14 00:34:48 13° 70° (ENE) 00:36:22 437.505
DUCHIFAT 1 24 Apr 00:36:41 00:39:57 22° 97° (E) 00:43:13 145.980
BEESAT 2 24 Apr 00:52:39 00:56:07 26° 58° (ENE) 00:59:32 435.950
UKube-1 24 Apr 00:52:59 00:54:34 12° 68° (ENE) 00:56:10 .
BEESAT 3 24 Apr 01:00:53 01:04:54 76° 244° (WSW) 01:08:50 437.485
FO-29 24 Apr 01:04:24 01:07:47 18° 291° (WNW) 01:11:18 435.910
POLYITAN 1 24 Apr 01:08:07 01:12:18 76° 101° (E) 01:16:30 437.675
QB50P2 24 Apr 01:14:32 01:18:45 81° 283° (WNW) 01:22:57 145.880/145.840
DX 1 24 Apr 01:16:30 01:20:30 36° 73° (ENE) 01:24:30 434.975-435.025
ESTCUBE 1 24 Apr 01:24:22 01:27:00 15° 265° (W) 01:29:40 437.505/2401.250
AIST 2D 24 Apr 01:39:41 01:41:40 14° 288° (WNW) 01:43:38 435.315
NANOSAT C BR1 24 Apr 01:39:59 01:43:59 45° 285° (WNW) 01:47:58 145.865
SPROUT 24 Apr 01:41:19 01:45:18 38° 261° (W) 01:49:18 437.525
SRMSAT 24 Apr 01:44:22 01:49:09 25° 191° (S) 01:53:56 437.500
VELOX 1 24 Apr 01:50:20 01:54:11 28° 262° (W) 01:58:02 145.980
BUGSAT 1 24 Apr 01:51:12 01:55:08 55° 101° (E) 01:59:03 437.445
50 SAT 24 Apr 02:04:37 02:07:28 24° 263° (W) 02:10:21 437.505
EO-79 24 Apr 02:06:29 02:09:32 20° 289° (WNW) 02:12:34 145.935-145.965
DUCHIFAT 1 24 Apr 02:12:21 02:15:27 21° 289° (WNW) 02:18:33 145.980
Oscar 19 24 Apr 02:16:02 02:20:39 31° 98° (E) 02:25:13 437.125/150
UKube-1 24 Apr 02:26:01 02:30:08 44° 260° (W) 02:34:17 .
BEESAT 2 24 Apr 02:30:54 02:33:38 18° 251° (WSW) 02:36:21 435.950
PCSat 24 Apr 02:33:09 02:37:26 24° 106° (ESE) 02:41:44 145.827
ITUPSAT 1 24 Apr 02:44:16 02:47:15 17° 68° (ENE) 02:50:13 437.325
DX 1 24 Apr 02:54:23 02:56:43 14° 265° (W) 02:59:04 434.975-435.025
AO-7 24 Apr 03:24:16 03:27:42 13° 94° (E) 03:31:07 .
Gurwin Techsat 1B 24 Apr 03:30:54 03:36:13 77° 284° (WNW) 03:41:30 435.225
SRMSAT 24 Apr 03:35:08 03:37:46 13° 199° (SSW) 03:40:23 437.500
ITAMSAT 1 24 Apr 03:36:40 03:39:09 14° 94° (E) 03:41:39 435.822/435.867
BEESAT 24 Apr 03:41:26 03:46:11 79° 76° (ENE) 03:50:56 436.000
Oscar 19 24 Apr 03:55:40 03:59:43 23° 291° (WNW) 04:03:46 437.125/150
MOZHAYETS 4 24 Apr 04:02:57 04:07:24 57° 75° (ENE) 04:11:51
PCSat 24 Apr 04:15:44 04:20:35 33° 300° (WNW) 04:25:28 145.827
ITUPSAT 1 24 Apr 04:20:20 04:24:43 37° 261° (W) 04:29:08 437.325
YUBILEINY 24 Apr 04:38:15 04:45:49 35° 87° (E) 04:53:22 435.215
KKS-1 24 Apr 04:38:51 04:42:21 23° 71° (ENE) 04:45:51 437.445
CUBESAT XI-V 24 Apr 04:46:14 04:50:01 25° 71° (ENE) 04:53:49 437.345
AO-7 24 Apr 05:12:47 05:21:08 90° 121° (ESE) 05:29:29 .
ITAMSAT 1 24 Apr 05:13:48 05:18:48 51° 286° (WNW) 05:23:48 435.822/435.867
STARS 24 Apr 05:19:05 05:22:48 27° 72° (ENE) 05:26:30 437.465
NO-84 24 Apr 05:54:16 05:56:52 33° 234° (SW) 05:59:31 435.350 FM
DOVE 4 24 Apr 06:14:18 06:16:17 13° 92° (E) 06:18:13 437.250
KKS-1 24 Apr 06:15:08 06:18:44 24° 263° (W) 06:22:21 437.445
RS-15 24 Apr 06:18:01 06:23:51 15° 98° (E) 06:29:45 29.354- 29.394
CUBESAT XI-V 24 Apr 06:23:40 06:27:16 22° 264° (W) 06:30:54 437.345
XW-2F 24 Apr 06:33:23 06:34:00 10° 94° (E) 06:34:36 145.980 - 146.000
YUBILEINY 24 Apr 06:34:23 06:42:20 40° 282° (WNW) 06:50:20 435.215
NUDT-PHONESAT 24 Apr 06:52:31 06:54:49 16° 96° (E) 06:57:06 437.300
SO-50 24 Apr 06:55:49 06:59:57 32° 112° (ESE) 07:04:02 436.795
STARS 24 Apr 06:55:52 06:59:03 19° 264° (W) 07:02:14 437.465
AO-7 24 Apr 07:08:19 07:12:47 16° 303° (WNW) 07:17:16 .
XW-2D 24 Apr 07:18:08 07:21:50 51° 99° (E) 07:25:33 145.860 - 145.880
M-CUBED/EXP-1 PRIME 24 Apr 07:22:52 07:26:51 32° 68° (ENE) 07:30:59 437.505
STRAND 1 24 Apr 07:23:18 07:27:24 25° 70° (ENE) 07:31:32 437.568
XW-2B 24 Apr 07:24:56 07:28:42 62° 101° (E) 07:32:29 145.730 - 145.750
LilacSat-2 24 Apr 07:32:20 07:36:11 87° 106° (ESE) 07:40:02 437.200
HO-68 24 Apr 07:34:05 07:37:56 15° 94° (E) 07:41:46 435.675
XW-2C 24 Apr 07:36:39 07:40:29 85° 277° (W) 07:44:17 145.795 - 145.815
CUTE-I 24 Apr 07:39:05 07:44:23 71° 102° (ESE) 07:49:40 437.470
KAITUO 1B 24 Apr 07:41:43 07:45:30 86° 101° (E) 07:49:17 145.475/437.950
DOVE 4 24 Apr 07:49:53 07:54:10 39° 286° (WNW) 07:58:13 437.250
XW-2F 24 Apr 08:04:43 08:08:11 34° 285° (WNW) 08:11:39 145.980 - 146.000
RS-15 24 Apr 08:22:32 08:34:25 83° 114° (ESE) 08:46:48 29.354- 29.394
NUDT-PHONESAT 24 Apr 08:25:42 08:28:37 22° 287° (WNW) 08:31:33 437.300
SO-50 24 Apr 08:36:56 08:40:24 21° 305° (NW) 08:43:50 436.795
CUTE 1.7 + AOD 2 24 Apr 08:48:33 08:52:50 74° 101° (E) 08:57:07 437.475
ISS 24 Apr 08:51:09 08:54:05 31° 129° (SE) 08:57:00 437.550
Tancredo 1 24 Apr 08:51:27 08:54:25 44° 131° (SE) 08:57:24 437.200
AAUSAT CUBESAT 2 24 Apr 08:56:12 08:59:32 23° 96° (E) 09:02:51 437.432
M-CUBED/EXP-1 PRIME 24 Apr 08:58:02 09:01:14 19° 261° (W) 09:04:32 437.505
STRAND 1 24 Apr 09:02:04 09:06:24 28° 262° (W) 09:10:45 437.568
Oscar 11 24 Apr 09:12:49 09:14:33 12° 94° (E) 09:16:17 .
SEEDS 24 Apr 09:14:11 09:18:27 85° 284° (WNW) 09:22:42 437.485
UWE-3 24 Apr 09:17:00 09:20:53 36° 99° (E) 09:24:50 435.000/436.395/437.385
HO-68 24 Apr 09:18:54 09:26:05 74° 287° (WNW) 09:33:15 435.675
XW-2A 24 Apr 09:21:05 09:23:57 27° 285° (WNW) 09:26:49 145.665 - 145.685
CUTE-I 24 Apr 09:22:29 09:23:45 11° 296° (WNW) 09:25:02 437.470
CUBEBUG 2 24 Apr 09:23:48 09:27:58 83° 100° (E) 09:32:12 437.445
PRISM 24 Apr 09:52:54 09:56:20 26° 72° (ENE) 09:59:47 437.425
DELFI C3 24 Apr 10:07:15 10:09:15 13° 94° (E) 10:11:14 145.870
ZACube-1 24 Apr 10:18:46 10:22:58 65° 283° (WNW) 10:27:13 437.345
AO-73 24 Apr 10:27:24 10:31:32 56° 284° (WNW) 10:35:44 145.935
ISS 24 Apr 10:28:24 10:30:35 17° 322° (NW) 10:32:46 437.550
Tancredo 1 24 Apr 10:29:11 10:30:31 12° 324° (NW) 10:31:52 437.200
AAUSAT CUBESAT 2 24 Apr 10:31:42 10:34:48 20° 289° (WNW) 10:37:53 437.432
RS-15 24 Apr 10:38:43 10:48:21 27° 316° (NW) 10:58:14 29.354- 29.394
Oscar 11 24 Apr 10:46:42 10:50:47 40° 285° (WNW) 10:54:50 .
TIGRISAT 24 Apr 10:48:17 10:52:43 69° 77° (ENE) 10:57:03 435.000
UWE-3 24 Apr 10:55:02 10:56:59 13° 290° (WNW) 10:58:58 435.000/436.395/437.385
FO-29 24 Apr 11:07:29 11:14:19 86° 74° (ENE) 11:20:20 435.910
UNISAT 6 24 Apr 11:08:41 11:13:06 60° 259° (W) 11:17:25 437.425
OBJECT BX 24 Apr 11:28:25 11:32:00 56° 284° (WNW) 11:35:35 145.990 - 145.960
PRISM 24 Apr 11:28:45 11:31:32 17° 264° (W) 11:34:20 437.425
O/OREOS (USA 219) 24 Apr 11:31:03 11:35:36 78° 288° (WNW) 11:40:13 437.305
DELFI C3 24 Apr 11:40:31 11:44:02 30° 286° (WNW) 11:47:32 145.870
ESTCUBE 1 24 Apr 11:46:27 11:48:10 12° 94° (E) 11:49:53 437.505/2401.250
POLYITAN 1 24 Apr 11:55:06 11:58:34 25° 72° (ENE) 12:02:00 437.675
QB50P2 24 Apr 12:01:11 12:04:57 32° 74° (ENE) 12:08:44 145.880/145.840
AIST 2D 24 Apr 12:06:32 12:09:59 73° 79° (ENE) 12:13:27 435.315
NANOSAT C BR1 24 Apr 12:25:31 12:29:39 55° 76° (ENE) 12:33:45 145.865
BUGSAT 1 24 Apr 12:35:49 12:38:37 18° 71° (ENE) 12:41:25 437.445
AO-85 24 Apr 12:37:16 12:40:03 16° 111° (ESE) 12:42:45 145.980
LO-87 24 Apr 12:41:29 12:44:57 52° 284° (WNW) 12:48:24 145.935 - 145.965
EO-79 24 Apr 12:51:29 12:55:39 59° 259° (W) 12:59:50 145.935-145.965
DUCHIFAT 1 24 Apr 12:56:47 13:00:56 64° 259° (WSW) 13:05:06 145.980
FO-29 24 Apr 12:59:10 12:59:31 10° 265° (W) 12:59:54 435.910
